[[{"header":{"parameterUnit":"m.s-1","parameterCategory":1,"la1":30.2991,"la2":30.254,"lo1":-89.0895,"lo2":-89.0444,"dy":0.0017,"dx":0.0017,"nx":28,"ny":28,"refTime":"2023-04-17T21:00:00:Z","depth":0,"parameterNumber":2,"parameterNumberName":"U-component_of_WINDS"},"data":[0,0,0,0,0,0,0,0,0,0,0,0,0,0,0,0,0,0,0,0,0,0,0,0,0,0,0,0,0,0,0,0,0,0,0,0,0,0,0,0,0,0,0,0,0,0,0,0,0,0,0,0,0,0,0,0,0,0,-4.499,-4.499,0,-4.4979,-4.4979,-4.4979,-4.4885,-4.4883,-4.488,-4.4878,-4.487,-4.4871,-4.4873,0,0,0,0,0,0,0,0,0,0,0,0,0,-4.4932,-4.4933,-4.499,-4.499,-4.499,-4.4979,-4.4979,-4.4979,-4.4885,-4.4882,-4.488,-4.4877,-4.4869,-4.4871,-4.4874,0,0,0,0,0,0,0,0,0,0,0,0,0,-4.4943,-4.4934,-4.499,-4.4942,-4.4937,-4.4979,-4.4979,-4.4979,-4.4886,-4.4882,-4.4879,-4.4876,-4.4868,-4.4871,-4.4874,-4.4962,0,0,-4.4883,-4.4884,0,0,0,0,0,0,0,0,-4.4942,-4.4945,-4.4949,-4.4945,-4.494,-4.493,-4.4955,-4.4974,-4.4887,-4.4905,-4.4878,-4.4874,-4.4893,-4.4893,-4.4899,-4.4962,-4.4962,-4.4883,-4.4885,-4.4886,-4.4887,0,0,0,0,0,0,0,-4.4942,-4.4945,-4.4986,-4.4949,-4.4944,-4.4921,-4.4919,-4.4958,-4.4919,-4.4904,-4.4897,-4.4897,-4.489,-4.4897,-4.4898,-4.4962,-4.4883,-4.4886,-4.4887,-4.4889,-4.5098,-4.5101,0,0,0,0,0,0,-4.4947,-4.4945,-4.4986,-4.4985,-4.4932,-4.4925,-4.4923,-4.4937,-4.4918,-4.4912,-4.49,-4.4892,-4.4893,-4.4895,-4.4898,-4.5001,-4.4886,-4.4889,-4.4891,-4.5094,-4.5099,-4.5103,0,0,0,0,0,0,-4.4946,-4.4952,-4.4986,-4.4963,-4.4966,-4.493,-4.4947,-4.4938,-4.4945,-4.4915,-4.4908,-4.4914,-4.489,-4.4893,-4.4947,-4.4999,-4.489,-4.4893,-4.509,-4.5095,-4.5101,-4.5208,0,0,0,0,0,0,-4.4945,-4.4952,-4.4985,-4.4965,-4.4968,-4.5036,-4.495,-4.4941,-4.495,-4.494,-4.4927,-4.4921,-4.4888,-4.4943,-4.495,-4.5001,-4.4895,-4.5085,-4.5092,-4.5099,-4.52,-4.5217,-4.5231,0,0,0,0,0,-4.4943,-4.5016,-4.4987,-4.4992,-4.5008,-4.5039,-4.5041,-4.5001,-4.4955,-4.4988,-4.4969,-4.4921,-4.4992,-4.495,-4.4956,-4.5009,-4.5081,-4.509,-4.5098,-4.5193,-4.5213,-4.5231,0,0,0,0,0,0,-4.5043,-4.5012,-4.498,-4.5048,-4.5047,-4.5023,-4.5063,-4.5024,-4.5036,-4.5027,-4.4977,-4.4975,-4.5036,-4.5028,-4.4981,-4.5095,-4.5029,-4.5039,-4.5098,-4.5118,-4.5133,-4.5134,-4.4898,0,0,0,0,0,-4.5073,-4.5101,-4.5072,-4.5135,-4.5136,-4.51,-4.5112,-4.5081,-4.5078,-4.5078,-4.5062,-4.5062,-4.5085,-4.51,-4.5119,-4.5198,-4.5194,-4.5238,-4.5253,-4.5267,-4.5277,-4.5319,-4.5338,-4.5131,-4.5131,-4.5131,0,0,-4.5136,-4.5122,-4.5142,-4.5155,-4.515,-4.5181,-4.51,-4.5136,-4.5158,-4.5083,-4.5133,-4.5122,-4.5119,-4.5186,-4.5215,-4.5181,-4.5333,-4.5277,-4.5288,-4.5291,-4.533,-4.5349,-4.5367,-4.5137,-4.5135,-4.5135,0,0,-4.5265,-4.5257,-4.5308,-4.5306,-4.53,-4.5275,-4.5288,-4.527,-4.526,-4.5309,-4.5254,-4.528,-4.5319,-4.5319,-4.5325,-4.5455,-4.5412,-4.5462,-4.5545,-4.5587,-4.5603,-4.5618,-4.5665,-4.5683,-4.5472,-4.5472,-4.5472,0,-4.5343,-4.5386,-4.534,-4.538,-4.5387,-4.532,-4.5373,-4.5373,-4.5374,-4.5381,-4.5343,-4.5391,-4.5384,-4.545,-4.5482,-4.5488,-4.5502,-4.5464,-4.5605,-4.5618,-4.5631,-4.5676,-4.5694,-4.5478,-4.5478,-4.5477,-4.5476,0,-4.5483,-4.5514,-4.5557,-4.5559,-4.5571,-4.5617,-4.5579,-4.5598,-4.5566,-4.5546,-4.5598,-4.5586,-4.5602,-4.5616,-4.5585,-4.5679,-4.5658,-4.5613,-4.5546,-4.5658,-4.5699,-4.5716,-4.5487,-4.5485,-4.5483,-4.5482,0,0,-4.5676,-4.5652,-4.5669,-4.567,-4.5658,-4.5682,-4.5725,-4.574,-4.5757,-4.576,-4.5796,-4.5831,-4.5789,-4.5795,-4.5764,-4.5801,-4.5906,-4.5751,-4.575,-4.5781,-4.601,-4.6045,-4.6066,-4.5877,-4.588,-4.5883,-4.6011,0,-4.5802,-4.5874,-4.5834,-4.5912,-4.594,-4.5877,-4.5915,-4.5913,-4.5896,-4.5918,-4.5899,-4.5925,-4.5867,-4.5871,-4.5904,-4.5886,-4.5951,-4.5876,-4.5912,-4.5914,-4.5916,-4.6087,-4.6124,-4.6245,-4.6027,-4.6029,-4.6031,0,-4.5958,-4.5967,-4.6048,-4.6032,-4.6042,-4.6077,-4.6088,-4.6109,-4.6106,-4.6091,-4.6098,-4.6058,-4.6101,-4.6034,-4.6092,-4.6042,-4.6054,-4.6048,-4.6051,-4.6054,-4.598,-4.6096,-4.6283,-4.6302,-4.6056,-4.6054,-4.6052,0,-4.6092,-4.6125,-4.6177,-4.618,-4.6162,-4.6188,-4.6182,-4.6175,-4.6187,-4.6196,-4.6204,-4.6219,-4.6227,-4.624,-4.6206,-4.616,-4.627,-4.62,-4.626,-4.6261,-4.6287,-4.6286,-4.648,-4.6293,-4.6293,-4.6292,-4.6292,0,-4.6237,-4.629,-4.6238,-4.627,-4.6327,-4.6282,-4.634,-4.6327,-4.6321,-4.6351,-4.6297,-4.6327,-4.6279,-4.6304,-4.6277,-4.6331,-4.6335,-4.6325,-4.6318,-4.6331,-4.6332,-4.6339,-4.633,-4.6297,-4.6296,-4.6295,-4.6294,0,-4.6397,-4.6364,-4.6418,-4.6397,-4.6393,-4.6436,-4.6418,-4.6448,-4.6427,-4.6465,-4.6472,-4.6439,-4.6466,-4.6433,-4.6456,-4.6439,-4.6512,-4.6491,-4.6513,-4.6508,-4.6571,-4.6566,-4.6777,-4.6803,-4.6598,-4.66,-4.6602,0,-4.6493,-4.6532,-4.6514,-4.653,-4.6527,-4.6553,-4.6565,-4.6521,-4.6536,-4.6535,-4.6566,-4.6588,-4.6603,-4.6649,-4.6628,-4.6646,-4.6627,-4.6699,-4.6629,-4.6641,-4.6629,-4.6628,-4.6633,-4.6714,-4.6717,-4.6719,-4.672,0,-4.6666,-4.6648,-4.6666,-4.668,-4.6695,-4.6703,-4.6708,-4.6724,-4.6679,-4.6698,-4.6724,-4.6736,-4.676,-4.6784,-4.6796,-4.6791,-4.6749,-4.6742,-4.6758,-4.6772,-4.6784,-4.678,-4.6554,-4.6738,-4.6736,-4.6735,-4.6734,-4.6733,-4.6798,-4.683,-4.6823,-4.6845,-4.6844,-4.685,-4.6877,-4.6859,-4.688,-4.6896,-4.6869,-4.6903,-4.6899,-4.6911,-4.6911,-4.6937,-4.6906,-4.6928,-4.6934,-4.694,-4.695,-4.6778,-4.6939,-4.6939,-4.6938,-4.6938,-4.6937,0,-4.697,-4.6962,-4.6983,-4.6991,-4.7009,-4.6966,-4.6969,-4.6988,-4.7018,-4.7017,-4.7034,-4.7065,-4.7087,-4.7068,-4.7086,-4.7111,-4.7093,-4.7118,-4.7116,-4.7116,-4.6976,-4.6962,-4.7133,-4.7133,-4.7133,-4.7133,-4.7133,-4.7133,-4.7061,-4.7113,-4.7095,-4.7146,-4.7138,-4.717,-4.7175,-4.7181,-4.718,-4.7217,-4.7235,-4.7222,-4.7214,-4.7232,-4.7251,-4.7245,-4.7255,-4.7288,-4.7275,-4.7145,-4.7126,-4.7108,-4.7094,-4.729,-4.729,-4.7413,-4.7414,-4.7415]},{"header":{"parameterUnit":"m.s-1","parameterCategory":1,"la1":30.2991,"la2":30.254,"lo1":-89.0895,"lo2":-89.0444,"dy":0.0017,"dx":0.0017,"nx":28,"ny":28,"refTime":"2023-04-17T21:00:00:Z","depth":0,"parameterNumber":3,"parameterNumberName":"V-component_of_WINDS"},"data":[0,0,0,0,0,0,0,0,0,0,0,0,0,0,0,0,0,0,0,0,0,0,0,0,0,0,0,0,0,0,0,0,0,0,0,0,0,0,0,0,0,0,0,0,0,0,0,0,0,0,0,0,0,0,0,0,0,0,0.2702,0.2701,0,0.2649,0.2649,0.2648,0.2646,0.2647,0.2647,0.2648,0.2596,0.2594,0.2592,0,0,0,0,0,0,0,0,0,0,0,0,0,0.2801,0.28,0.2702,0.2701,0.27,0.265,0.2649,0.2648,0.2646,0.2647,0.2647,0.2648,0.2597,0.2594,0.2592,0,0,0,0,0,0,0,0,0,0,0,0,0,0.2755,0.2799,0.2702,0.2693,0.2692,0.265,0.2649,0.2648,0.2646,0.2647,0.2648,0.2648,0.2597,0.2595,0.2592,0.2555,0,0,0.2583,0.2582,0,0,0,0,0,0,0,0,0.2757,0.2751,0.2695,0.2693,0.2692,0.2655,0.2665,0.2617,0.2645,0.2663,0.2648,0.2649,0.2615,0.2611,0.2599,0.2553,0.2551,0.2583,0.2581,0.258,0.2579,0,0,0,0,0,0,0,0.2761,0.2753,0.2681,0.2694,0.2692,0.2692,0.2687,0.2656,0.2635,0.2662,0.2661,0.2655,0.2614,0.2602,0.2598,0.255,0.2583,0.258,0.2578,0.2577,0.2473,0.2472,0,0,0,0,0,0,0.2765,0.2756,0.2683,0.2679,0.2727,0.269,0.2684,0.2666,0.2635,0.2631,0.2654,0.2655,0.2606,0.2601,0.2596,0.2552,0.258,0.2577,0.2575,0.2474,0.2473,0.2471,0,0,0,0,0,0,0.2767,0.2759,0.2685,0.2718,0.2708,0.2687,0.2668,0.2665,0.2652,0.263,0.2626,0.2645,0.2607,0.26,0.2566,0.255,0.2576,0.2573,0.2475,0.2473,0.2472,0.2464,0,0,0,0,0,0,0.277,0.2759,0.2745,0.2717,0.2706,0.2655,0.2667,0.2663,0.2647,0.2647,0.262,0.2616,0.2607,0.257,0.2563,0.2547,0.2571,0.2476,0.2474,0.2473,0.2465,0.2462,0.2459,0,0,0,0,0,0.2774,0.2745,0.2744,0.2735,0.2688,0.2654,0.2648,0.2637,0.2645,0.2631,0.2617,0.2617,0.2553,0.2567,0.2558,0.2541,0.2477,0.2475,0.2473,0.2467,0.2463,0.246,0,0,0,0,0,0,0.2772,0.2741,0.274,0.2701,0.268,0.2653,0.2635,0.2633,0.261,0.2611,0.26,0.2594,0.256,0.2547,0.2562,0.2505,0.2516,0.2512,0.2515,0.2511,0.2508,0.2512,0.2568,0,0,0,0,0,0.2766,0.2741,0.2716,0.2684,0.2673,0.2656,0.2641,0.2634,0.2612,0.2604,0.2587,0.2566,0.2541,0.2525,0.2501,0.2463,0.2458,0.2448,0.2445,0.2443,0.2439,0.2419,0.2415,0.2464,0.2464,0.2464,0,0,0.2756,0.2736,0.272,0.2683,0.2666,0.264,0.2648,0.2621,0.2602,0.26,0.2566,0.2553,0.2529,0.2493,0.2477,0.2482,0.2425,0.244,0.2438,0.2436,0.2417,0.2412,0.2408,0.2462,0.2463,0.2463,0,0,0.2724,0.2705,0.2677,0.266,0.2634,0.2623,0.2616,0.259,0.2581,0.2547,0.2545,0.2523,0.248,0.2463,0.2449,0.2412,0.2411,0.2404,0.2389,0.237,0.2366,0.2362,0.235,0.2345,0.2401,0.2401,0.2401,0,0.2714,0.2675,0.2663,0.2636,0.262,0.2616,0.2588,0.2572,0.254,0.2529,0.2535,0.2482,0.2465,0.2426,0.2417,0.2405,0.2398,0.2407,0.2367,0.2363,0.236,0.2348,0.2343,0.24,0.24,0.24,0.24,0,0.2664,0.2637,0.2618,0.2586,0.2568,0.254,0.2526,0.2509,0.2504,0.2493,0.2459,0.2439,0.2411,0.2401,0.2397,0.2361,0.2366,0.2369,0.2381,0.2355,0.2343,0.2338,0.2399,0.2399,0.24,0.24,0,0,0.2629,0.2592,0.2585,0.2571,0.2542,0.2522,0.2494,0.2467,0.2453,0.2431,0.2408,0.2373,0.2376,0.236,0.2354,0.2337,0.2309,0.2343,0.2342,0.2338,0.227,0.2268,0.2263,0.2309,0.2308,0.2307,0.2273,0,0.2595,0.2545,0.2534,0.2492,0.2467,0.2464,0.244,0.242,0.2409,0.2387,0.2375,0.235,0.2356,0.2347,0.233,0.2316,0.2296,0.2318,0.2289,0.2288,0.2295,0.2256,0.2254,0.2222,0.2268,0.2267,0.2267,0,0.2547,0.2524,0.2479,0.2454,0.2443,0.2422,0.2396,0.2375,0.2353,0.2346,0.2329,0.2324,0.2297,0.2309,0.2271,0.2287,0.2274,0.2266,0.2265,0.2262,0.2276,0.2253,0.2212,0.2207,0.2259,0.226,0.226,0,0.2527,0.2484,0.2452,0.244,0.241,0.2395,0.2382,0.2361,0.2346,0.2323,0.2313,0.2288,0.2275,0.2256,0.2245,0.2255,0.2209,0.222,0.2203,0.2203,0.2194,0.2195,0.215,0.2185,0.2185,0.2185,0.2185,0,0.249,0.2463,0.2443,0.2423,0.2393,0.2381,0.2352,0.2339,0.232,0.2299,0.2294,0.2274,0.2261,0.2239,0.2231,0.2202,0.2196,0.219,0.2188,0.219,0.2191,0.2182,0.2185,0.2184,0.2184,0.2184,0.2184,0,0.2462,0.2448,0.2412,0.2387,0.238,0.2359,0.2337,0.2319,0.2307,0.228,0.2273,0.2255,0.223,0.2217,0.2186,0.218,0.2147,0.2146,0.2154,0.2154,0.2138,0.214,0.2086,0.2079,0.2118,0.2118,0.2117,0,0.244,0.2419,0.2391,0.2375,0.2362,0.2338,0.2322,0.231,0.2293,0.2267,0.2252,0.2226,0.2205,0.2164,0.2149,0.2125,0.2124,0.2107,0.212,0.2124,0.2125,0.2126,0.2125,0.2105,0.2104,0.2104,0.2104,0,0.2401,0.2395,0.2372,0.2346,0.2327,0.2306,0.2286,0.2274,0.2259,0.2241,0.2214,0.2198,0.2165,0.214,0.2115,0.2103,0.2101,0.21,0.2095,0.2097,0.2103,0.2101,0.2149,0.2101,0.2101,0.2102,0.2102,0.2102,0.2376,0.2357,0.2335,0.2309,0.2293,0.2274,0.2255,0.2241,0.2219,0.2191,0.2186,0.2158,0.2137,0.2103,0.209,0.2069,0.2073,0.2065,0.2064,0.2062,0.2062,0.2106,0.2064,0.2064,0.2064,0.2065,0.2065,0,0.2338,0.2323,0.23,0.2271,0.2251,0.2251,0.2229,0.2212,0.2188,0.2168,0.2147,0.2117,0.2093,0.2076,0.2052,0.2038,0.2037,0.2032,0.2033,0.2031,0.2059,0.2066,0.2033,0.2033,0.2033,0.2033,0.2033,0.2033,0.2316,0.2285,0.2276,0.2237,0.2223,0.2195,0.2183,0.2166,0.215,0.2117,0.2096,0.2085,0.2067,0.2041,0.2019,0.2015,0.2007,0.2002,0.1998,0.2025,0.2028,0.2032,0.2038,0.2,0.2,0.1971,0.1971,0.1971]}]]